Find Starlink 4208

NORAD ID: 52844 Int'l Des: 2022-062 Owner: SPXS Country: US Constellation: starlink operational
LEOCIRCULAR

現在のビュー

3D地球を読み込み中...

About Starlink 4208

Starlink 4208 (NORAD 52844) is a starlink constellation satellite (v1.5) launched Jun 17, 2022 by SPXS of US. It operates in LEO, CIRCULAR orbit with a mass of 297.00 kg.

次回通過

Passes for default location (London). Set your location on the main map for personalized predictions.

高度履歴

Loading altitude history...

軌道要素

1 52844U 22062Q 26262.52511566 .00003120 00000-0 10609-3 0 9999
2 52844 53.1581 231.7813 0001219 66.1109 294.0021 15.33566803235210
Epoch: Sep 19, 2026 • Age: 29 hours

現在のステータス

高度 483.3 km
遠地点 / 近地点 N/A
速度 7.62 km/s
衛星直下点 -50.19°S, 158.02°W
打ち上げ日 Jun 17, 2022
運用期間 4.2 years
タイプ internet

技術仕様

分類 Payload
質量 297.00 kg
乾燥質量 275.00 kg
長さ 0.20 m
スパン 9.00 m
形状 ? Box + pan
製造者 SPXS
バスタイプ Starlink
フェーズステータス In Orbit
所有者/国 SPXS/US

Most Searched